DW4075 Weather Reports


Display with metric or nautical units.
time (UTC)temp
F
wind
direction
speed
MPH
gust
MPH
rain 1hr
in
rain 24hr
in
rain mn
in
humidity
%
barometer
mb
20260506215505 54 289 13.0 23.0 0.00 0.01 0.00 52 1015.7
20260506215004 54 282 14.0 25.0 0.00 0.01 0.00 47 1015.7
20260506214503 55 304 15.0 25.0 0.00 0.01 0.00 53 1016.3
20260506214001 58 311 14.0 25.0 0.00 0.01 0.00 43 1017.4
20260506213455 62 288 12.0 22.0 0.00 0.01 0.00 38 1018.8
20260506212944 65 263 10.0 22.0 0.00 0.01 0.00 30 1019.5
20260506212443 65 226 9.0 20.0 0.00 0.01 0.00 31 1019.3
20260506212159 63 209 8.0 20.0 0.00 0.01 0.00 31 1018.4
20260506211700 63 192 8.0 15.0 0.00 0.01 0.00 32 1018.4
20260506211156 64 263 10.0 21.0 0.00 0.01 0.00 30 1018.8
20260506210441 65 225 11.0 21.0 0.00 0.01 0.00 30 1019.1
20260506210202 64 274 10.0 18.0 0.00 0.01 0.00 30 1019.1
20260506205438 64 291 8.0 22.0 0.00 0.01 0.00 30 1018.8
20260506204936 64 281 8.0 19.0 0.00 0.01 0.00 31 1018.8
20260506204434 63 224 9.0 16.0 0.00 0.01 0.00 30 1018.5
20260506203932 64 261 7.0 16.0 0.00 0.01 0.00 31 1018.7
20260506203654 62 234 6.0 14.0 0.00 0.01 0.00 35 1018.2
20260506202932 61 257 8.0 16.0 0.00 0.01 0.00 34 1017.7
20260506202433 61 317 7.0 16.0 0.00 0.01 0.00 33 1017.6
20260506201932 61 302 7.0 19.0 0.00 0.01 0.00 34 1017.6
20260506201654 60 275 8.0 19.0 0.00 0.01 0.00 34 1017.3
20260506200934 61 286 6.0 14.0 0.00 0.01 0.00 33 1017.6
20260506200431 61 249 6.0 14.0 0.00 0.01 0.00 34 1017.6
20260506200123 62 294 7.0 14.0 0.00 0.01 0.00 38 1018.2
20260506200115 62 244 5.0 10.0 0.00 0.01 0.00 34 1018.0
20260506195629 62 294 5.0 11.0 0.00 0.01 0.00 37 1018.2
20260506194416 61 295 7.0 14.0 0.00 0.01 0.00 38 1018.0
20260506194400 60 315 6.0 13.0 0.00 0.01 0.00 39 1017.7
20260506193415 60 355 7.0 14.0 0.00 0.01 0.00 39 1017.8
20260506192912 61 341 7.0 15.0 0.00 0.01 0.00 37 1018.4
20260506192412 62 259 8.0 18.0 0.00 0.01 0.00 34 1018.7
20260506191910 64 311 9.0 18.0 0.00 0.01 0.00 33 1019.1
20260506191409 63 243 9.0 16.0 0.00 0.01 0.00 36 1018.9
20260506190910 62 254 10.0 20.0 0.00 0.01 0.00 35 1018.7
20260506190407 61 288 9.0 20.0 0.00 0.01 0.00 35 1018.3
20260506185908 60 266 8.0 15.0 0.00 0.01 0.00 37 1017.6
20260506185407 59 261 9.0 16.0 0.00 0.01 0.00 37 1017.3
20260506184908 60 299 9.0 16.0 0.00 0.01 0.00 35 1017.8
20260506184403 60 293 9.0 20.0 0.00 0.01 0.00 36 1017.8
20260506183904 59 238 9.0 20.0 0.00 0.01 0.00 37 1017.6
20260506183403 59 207 10.0 19.0 0.00 0.01 0.00 39 1017.4
20260506182904 58 218 8.0 19.0 0.00 0.01 0.00 37 1017.1
20260506182404 58 284 7.0 15.0 0.00 0.01 0.00 37 1017.3
20260506181903 58 296 7.0 15.0 0.00 0.01 0.00 37 1017.1
20260506181403 58 281 8.0 16.0 0.00 0.01 0.00 38 1017.1
20260506180903 58 271 7.0 16.0 0.00 0.01 0.00 37 1017.1
20260506180404 58 238 6.0 12.0 0.00 0.01 0.00 38 1017.2
20260506175903 58 267 7.0 15.0 0.00 0.01 0.00 37 1017.0
20260506175403 58 290 6.0 15.0 0.00 0.01 0.00 38 1017.1
20260506174903 57 294 6.0 14.0 0.00 0.01 0.00 39 1017.0
20260506174627 57 244 8.0 14.0 0.00 0.01 0.00 40 1016.7
20260506174121 57 273 7.0 14.0 0.00 0.01 0.00 41 1016.6
20260506173356 57 217 6.0 14.0 0.00 0.01 0.00 44 1016.7
20260506173115 57 192 6.0 19.0 0.00 0.01 0.00 43 1016.7
20260506172344 58 258 8.0 19.0 0.00 0.01 0.00 42 1017.1
20260506172110 59 194 8.0 19.0 0.00 0.01 0.00 42 1017.4
20260506171342 59 190 7.0 14.0 0.00 0.01 0.00 44 1017.6
20260506170841 59 185 6.0 13.0 0.00 0.01 0.00 43 1017.3
20260506170340 58 273 8.0 16.0 0.00 0.01 0.00 42 1017.1
20260506165841 58 279 9.0 22.0 0.00 0.01 0.00 39 1017.0
20260506165338 59 275 7.0 22.0 0.00 0.01 0.00 40 1017.3
20260506164837 59 241 5.0 12.0 0.00 0.01 0.00 41 1017.2
20260506164556 58 219 6.0 14.0 0.00 0.01 0.00 43 1017.1
20260506163833 58 221 7.0 14.0 0.00 0.01 0.00 44 1017.1
20260506163330 58 215 7.0 13.0 0.00 0.01 0.00 45 1016.8
20260506162831 57 150 6.0 13.0 0.00 0.01 0.00 45 1016.6
20260506162332 56 217 6.0 13.0 0.00 0.01 0.00 46 1016.1
20260506162055 56 130 6.0 13.0 0.00 0.01 0.00 48 1016.2
20260506161331 55 137 4.0 9.0 0.00 0.01 0.00 48 1016.0
20260506160831 54 160 4.0 10.0 0.00 0.01 0.00 49 1015.7
20260506160331 55 251 5.0 10.0 0.00 0.01 0.00 48 1015.9
20260506155830 55 225 4.0 10.0 0.00 0.01 0.00 47 1015.9
20260506155331 55 259 5.0 10.0 0.00 0.01 0.00 49 1015.9
20260506155100 55 123 5.0 9.0 0.00 0.01 0.00 48 1015.7
20260506154325 55 155 5.0 12.0 0.00 0.01 0.00 50 1015.9
20260506153823 54 184 5.0 12.0 0.00 0.01 0.00 53 1015.9
20260506153322 53 246 5.0 11.0 0.00 0.01 0.00 55 1015.6
20260506153044 53 238 6.0 12.0 0.00 0.01 0.00 54 1015.5
20260506152319 53 217 5.0 12.0 0.00 0.01 0.00 56 1015.3
20260506151817 52 192 5.0 11.0 0.00 0.01 0.00 58 1014.9
20260506151317 51 233 5.0 12.0 0.00 0.01 0.00 60 1014.6
20260506150816 51 224 5.0 12.0 0.00 0.01 0.00 59 1014.5
20260506150316 51 234 4.0 11.0 0.00 0.01 0.00 61 1014.5
20260506150044 50 216 5.0 11.0 0.00 0.01 0.00 63 1014.4
20260506145812 50 193 6.0 12.0 0.00 0.01 0.00 62 1014.2
20260506144813 49 202 6.0 12.0 0.00 0.01 0.00 64 1014.0
20260506144313 49 201 6.0 13.0 0.00 0.01 0.00 65 1013.8
20260506144252 48 241 6.0 13.0 0.00 0.01 0.00 65 1013.7
20260506143305 48 207 5.0 10.0 0.00 0.01 0.00 68 1013.3
20260506142804 46 206 5.0 10.0 0.00 0.01 0.00 69 1012.8
20260506142302 45 212 5.0 11.0 0.00 0.01 0.00 71 1012.3
20260506142256 45 211 5.0 11.0 0.00 0.01 0.00 70 1012.1
20260506141303 45 213 3.0 10.0 0.00 0.01 0.00 71 1012.0
20260506141029 44 201 3.0 7.0 0.00 0.01 0.00 73 1011.6
20260506140307 44 201 3.0 7.0 0.00 0.01 0.00 70 1011.5
20260506135804 45 202 4.0 9.0 0.00 0.01 0.00 69 1012.1
20260506135305 46 198 5.0 9.0 0.00 0.01 0.00 68 1012.3
20260506134803 46 178 5.0 9.0 0.00 0.01 0.00 69 1012.5
20260506134303 45 196 5.0 11.0 0.00 0.01 0.00 70 1012.1
20260506133803 45 190 5.0 11.0 0.00 0.01 0.00 70 1011.9
20260506133304 44 225 5.0 11.0 0.00 0.01 0.00 72 1011.6
20260506132802 44 205 4.0 11.0 0.00 0.01 0.00 73 1011.2
20260506132530 43 231 3.0 7.0 0.00 0.01 0.00 75 1010.8
20260506131803 42 232 3.0 6.0 0.00 0.01 0.00 76 1010.4
20260506131303 42 232 4.0 8.0 0.00 0.01 0.00 77 1010.2
20260506130802 41 232 4.0 8.0 0.00 0.01 0.00 78 1010.0
20260506130300 41 232 3.0 8.0 0.00 0.01 0.00 79 1009.5
20260506125758 40 232 3.0 8.0 0.00 0.01 0.00 80 1009.3
20260506125258 40 232 2.0 7.0 0.00 0.01 0.00 81 1009.1
20260506124754 39 232 2.0 7.0 0.00 0.01 0.00 82 1008.8
20260506124255 39 232 2.0 7.0 0.00 0.01 0.00 82 1008.6
20260506123744 39 232 3.0 8.0 0.00 0.01 0.00 83 1008.4
20260506123234 38 232 3.0 8.0 0.00 0.01 0.00 83 1008.3
20260506122727 38 232 3.0 6.0 0.00 0.01 0.00 84 1008.1
20260506122220 38 232 3.0 9.0 0.00 0.01 0.00 84 1008.0
20260506121720 38 232 5.0 10.0 0.00 0.01 0.00 84 1007.8
20260506121216 38 229 5.0 10.0 0.00 0.01 0.00 84 1007.6
20260506120715 38 225 4.0 9.0 0.00 0.01 0.00 84 1007.5
20260506120217 38 220 4.0 8.0 0.00 0.01 0.00 84 1007.6
20260506115715 38 219 4.0 9.0 0.00 0.01 0.00 84 1007.6
20260506115213 38 224 5.0 10.0 0.00 0.01 0.00 85 1007.5
20260506114712 38 221 5.0 10.0 0.00 0.01 0.00 85 1007.4
20260506114210 38 220 5.0 10.0 0.00 0.01 0.00 85 1007.2
20260506113930 38 215 5.0 11.0 0.00 0.01 0.00 86 1007.2
20260506113206 38 208 5.0 11.0 0.00 0.01 0.00 87 1007.1
20260506112704 37 216 5.0 9.0 0.00 0.01 0.00 88 1006.9
20260506112203 37 203 5.0 9.0 0.00 0.01 0.00 89 1006.6
20260506111703 36 212 4.0 10.0 0.00 0.01 0.00 90 1006.5
20260506111423 36 216 3.0 10.0 0.00 0.01 0.00 89 1006.4
20260506110654 36 223 2.0 5.0 0.00 0.01 0.00 88 1006.3
20260506110154 36 223 1.0 5.0 0.00 0.01 0.00 88 1006.4
20260506105654 36 223 1.0 4.0 0.00 0.01 0.00 89 1006.4
20260506105149 36 223 1.0 4.0 0.00 0.01 0.00 89 1006.4
20260506104646 36 223 2.0 7.0 0.00 0.01 0.00 90 1006.3
20260506104411 36 223 3.0 8.0 0.00 0.01 0.00 90 1006.0
20260506103904 36 222 4.0 8.0 0.00 0.01 0.00 90 1005.8
20260506103139 36 221 4.0 8.0 0.00 0.01 0.00 89 1005.7
20260506102632 36 221 3.0 7.0 0.00 0.01 0.00 89 1005.9
20260506102131 36 221 2.0 5.0 0.00 0.01 0.00 88 1006.0
20260506101632 36 221 1.0 4.0 0.00 0.01 0.00 88 1006.3
20260506101131 37 221 1.0 4.0 0.00 0.01 0.00 87 1006.3
20260506100631 37 221 1.0 4.0 0.00 0.01 0.00 87 1006.5
20260506100131 37 221 1.0 3.0 0.00 0.01 0.00 88 1006.5
20260506095630 37 221 1.0 5.0 0.00 0.01 0.00 88 1006.4
20260506095131 38 221 1.0 5.0 0.00 0.01 0.00 88 1006.4
20260506095112 38 221 2.0 5.0 0.00 0.01 0.00 88 1006.5
20260506094128 38 221 2.0 5.0 0.00 0.01 0.00 88 1006.6
20260506093623 38 221 3.0 7.0 0.00 0.01 0.00 88 1006.5
20260506093117 38 221 3.0 7.0 0.00 0.01 0.00 88 1006.6
20260506092618 38 221 3.0 6.0 0.00 0.01 0.00 88 1006.6
20260506092115 38 221 3.0 6.0 0.00 0.01 0.00 88 1006.6
20260506091842 39 221 3.0 7.0 0.00 0.01 0.00 88 1006.6
20260506091111 39 221 3.0 8.0 0.00 0.01 0.00 88 1006.5
20260506090604 39 221 4.0 8.0 0.00 0.01 0.00 88 1006.7
20260506090104 39 221 3.0 8.0 0.00 0.01 0.00 87 1006.7
20260506085825 39 221 3.0 8.0 0.00 0.01 0.00 87 1006.7
20260506085550 39 221 3.0 7.0 0.00 0.01 0.00 87 1006.7
20260506084604 39 221 3.0 7.0 0.00 0.01 0.00 87 1006.9
20260506084103 39 221 4.0 8.0 0.00 0.01 0.00 87 1006.9
20260506083603 39 221 4.0 8.0 0.00 0.01 0.00 86 1006.7
20260506083054 39 221 4.0 6.0 0.00 0.01 0.00 86 1006.7
20260506082552 39 221 3.0 8.0 0.00 0.01 0.00 86 1006.7
20260506082042 39 221 3.0 8.0 0.00 0.01 0.00 86 1006.7
20260506081541 39 220 3.0 6.0 0.00 0.01 0.00 86 1006.9
20260506081251 39 220 3.0 6.0 0.00 0.01 0.00 86 1006.9
20260506080750 39 220 3.0 7.0 0.00 0.01 0.00 86 1006.9
20260506073448 40 223 2.0 4.0 0.00 0.01 0.00 84 1007.1
20260506072946 40 223 2.0 5.0 0.00 0.01 0.00 84 1007.0
20260506072445 40 223 2.0 6.0 0.00 0.01 0.00 84 1007.2
20260506071945 40 223 3.0 6.0 0.00 0.01 0.00 84 1007.4
20260506071658 40 223 3.0 8.0 0.00 0.01 0.00 84 1007.4
20260506071645 40 223 3.0 8.0 0.00 0.01 0.00 84 1007.5
20260506070441 40 224 4.0 9.0 0.00 0.01 0.00 83 1007.4
20260506061937 41 183 3.0 7.0 0.00 0.01 0.00 79 1007.2
20260506061436 41 173 2.0 6.0 0.00 0.01 0.00 79 1007.0
20260506060935 41 173 1.0 6.0 0.00 0.01 0.00 79 1007.0
20260506060657 42 173 0.0 6.0 0.00 0.01 0.00 78 1007.1
20260506051410 44 282 4.0 8.0 0.01 0.01 0.01 74 1007.5
20260506050908 44 186 4.0 9.0 0.01 0.01 0.01 77 1007.5
20260506050404 44 193 4.0 9.0 0.01 0.01 0.01 77 1007.8
20260506050131 44 198 4.0 9.0 0.01 0.01 0.01 77 1007.8
20260506044903 44 279 11.0 27.0 0.01 0.01 0.01 75 1007.6
20260506044403 45 262 11.0 27.0 0.01 0.01 0.01 73 1008.2
20260506043903 45 282 10.0 22.0 0.01 0.01 0.01 74 1008.6
20260506043403 45 274 6.0 22.0 0.01 0.01 0.01 72 1008.3
20260506042903 45 292 1.0 19.0 0.00 0.00 0.00 78 1008.3
20260506042630 45 214 2.0 7.0 0.00 0.00 0.00 80 1008.1
20260506041906 45 214 3.0 7.0 0.00 0.00 0.00 79 1008.2
20260506041623 45 213 2.0 9.0 0.00 0.00 0.00 75 1008.0
20260506040853 44 180 2.0 9.0 0.00 0.00 0.00 74 1007.1
20260506040353 44 215 2.0 5.0 0.00 0.00 0.00 77 1006.7
20260506035841 44 216 1.0 4.0 0.00 0.00 0.00 77 1006.7
20260506035338 44 216 1.0 4.0 0.00 0.00 0.00 77 1006.7
20260506034835 44 216 1.0 5.0 0.00 0.00 0.00 76 1006.7
20260506034331 45 216 1.0 5.0 0.00 0.00 0.00 77 1006.9
20260506033822 45 216 1.0 5.0 0.00 0.00 0.00 76 1007.0
20260506033311 45 216 1.0 4.0 0.00 0.00 0.00 77 1007.0
20260506032808 45 216 2.0 7.0 0.00 0.00 0.00 76 1007.4
20260506032515 45 216 3.0 7.0 0.00 0.00 0.00 75 1007.7
20260506032014 45 216 3.0 6.0 0.00 0.00 0.00 75 1008.1
20260506031521 45 215 4.0 10.0 0.00 0.00 0.00 75 1007.8
20260506031005 45 215 4.0 10.0 0.00 0.00 0.00 74 1007.7
20260506030730 46 234 3.0 8.0 0.00 0.00 0.00 75 1007.7
20260506030005 46 265 5.0 14.0 0.00 0.00 0.00 74 1008.0
20260506025238 46 279 7.0 14.0 0.00 0.00 0.00 72 1008.0
20260506024733 46 271 6.0 13.0 0.00 0.00 0.00 73 1007.5
20260506024232 46 284 7.0 15.0 0.00 0.00 0.00 74 1007.1
20260506023952 46 277 8.0 15.0 0.00 0.00 0.00 74 1006.9
20260506023231 47 320 10.0 20.0 0.00 0.00 0.00 73 1007.1
20260506022733 48 294 10.0 20.0 0.00 0.00 0.00 71 1007.4
20260506022231 48 288 7.0 18.0 0.00 0.00 0.00 69 1007.4
20260506021732 48 299 6.0 12.0 0.00 0.00 0.00 63 1006.9
20260506021231 47 285 4.0 11.0 0.00 0.00 0.00 64 1006.4
20260506020730 47 313 3.0 10.0 0.00 0.00 0.00 65 1006.0
20260506020231 47 318 4.0 11.0 0.00 0.00 0.00 65 1005.9
20260506015730 48 317 6.0 13.0 0.00 0.00 0.00 65 1006.1
20260506015218 48 324 7.0 14.0 0.00 0.00 0.00 63 1006.4
20260506014929 49 274 8.0 15.0 0.00 0.00 0.00 60 1007.1
20260506014920 49 286 7.0 14.0 0.00 0.00 0.00 61 1006.9
20260506013715 49 255 9.0 15.0 0.00 0.00 0.00 59 1007.5
20260506013216 50 280 10.0 19.0 0.00 0.00 0.00 57 1007.6
20260506012713 51 265 10.0 19.0 0.00 0.00 0.00 55 1007.8
20260506012213 52 267 10.0 16.0 0.00 0.00 0.00 53 1008.4
20260506011714 53 273 10.0 19.0 0.00 0.00 0.00 53 1008.7
20260506011210 54 267 12.0 22.0 0.00 0.00 0.00 50 1008.9
20260506010707 55 271 11.0 22.0 0.00 0.00 0.00 44 1008.7
20260506010208 56 242 9.0 21.0 0.00 0.00 0.00 41 1008.8
20260506005705 56 279 8.0 16.0 0.00 0.00 0.00 45 1008.8
20260506005420 57 289 9.0 16.0 0.00 0.00 0.00 43 1008.8
20260506004659 57 303 7.0 14.0 0.00 0.00 0.00 42 1008.6
20260506004153 58 282 6.0 13.0 0.00 0.00 0.00 42 1008.8
20260506003654 58 285 7.0 14.0 0.00 0.00 0.00 40 1009.1
20260506003404 59 310 7.0 14.0 0.00 0.00 0.00 39 1009.4
20260506002642 60 265 8.0 14.0 0.00 0.00 0.00 37 1009.7
20260506002142 61 257 8.0 15.0 0.00 0.00 0.00 35 1010.0
20260506001642 62 286 7.0 15.0 0.00 0.00 0.00 36 1010.6
20260506001141 62 219 8.0 14.0 0.00 0.00 0.00 36 1010.5
20260506000642 63 227 9.0 20.0 0.00 0.00 0.00 35 1010.5
20260506000401 63 255 8.0 20.0 0.00 0.00 0.00 36 1010.6
20260505235639 63 171 8.0 18.0 0.00 0.00 0.00 36 1010.8
20260505235140 63 223 7.0 14.0 0.00 0.00 0.00 37 1010.4
20260505234859 62 242 6.0 14.0 0.00 0.00 0.00 37 1010.2
20260505234139 62 207 6.0 12.0 0.00 0.00 0.00 40 1010.0
20260505233638 62 259 5.0 12.0 0.00 0.00 0.00 39 1009.9
20260505233138 62 267 5.0 11.0 0.00 0.00 0.00 40 1009.7
20260505232858 61 255 6.0 11.0 0.00 0.00 0.00 42 1009.3
20260505232136 60 299 9.0 24.0 0.00 0.00 0.00 44 1009.1
20260505231630 59 254 11.0 24.0 0.00 0.00 0.00 50 1008.9
20260505231130 60 265 11.0 21.0 0.00 0.00 0.00 41 1009.1
20260505230630 60 232 12.0 25.0 0.00 0.00 0.00 40 1009.1
20260505230130 60 252 11.0 25.0 0.00 0.00 0.00 39 1009.1
20260505225625 61 219 11.0 24.0 0.00 0.00 0.00 40 1008.8
20260505225117 60 232 12.0 25.0 0.00 0.00 0.00 41 1008.6
20260505224612 61 215 12.0 25.0 0.00 0.00 0.00 42 1008.4
20260505224107 60 161 11.0 25.0 0.00 0.00 0.00 43 1008.4
20260505223605 61 170 10.0 21.0 0.00 0.00 0.00 42 1008.9
20260505223105 61 206 9.0 16.0 0.00 0.00 0.00 42 1009.2
20260505222605 62 183 9.0 16.0 0.00 0.00 0.00 42 1009.3
20260505222105 62 188 9.0 16.0 0.00 0.00 0.00 41 1009.5
20260505221605 62 155 7.0 15.0 0.00 0.00 0.00 41 1009.8
20260505221104 62 188 7.0 18.0 0.00 0.00 0.00 40 1009.8
20260505220604 63 159 7.0 18.0 0.00 0.00 0.00 39 1009.8
20260505220325 63 177 7.0 14.0 0.00 0.00 0.00 39 1010.3